Location: Harmon Landing Estates
(38.2032°N, 75.2955°W)
Time: 14:38:59
(UTC+00:00)

Daily predictions for brighter satellites

Satellite Brightness Start Highest point End
(mag) Time Altitude Azimuth Time Altitude Azimuth Time Altitude Azimuth
CZ-4C R/B 3.4 21:59:40 10° NNW 22:06:37 42° NE 22:14:31 10° ESE
Cosmos 1340 Rocket 4.2 22:05:07 10° NNW 22:09:02 45° W 22:12:54 10° SSW
Okean O Rocket 3.4 22:07:59 10° E 22:09:52 13° ENE 22:11:47 10° NE
CZ-4B R/B 4.3 22:06:48 10° ESE 22:10:44 21° ENE 22:14:38 10° NNE
SMAP 3.2 22:06:27 10° SSE 22:10:56 50° ENE 22:15:27 10° N
Meteor 2-14 Rocket 4.5 22:07:47 10° N 22:13:49 61° E 22:19:47 10° SSE
Cosmos 1814 Rocket 4.0 22:12:05 10° S 22:17:17 73° ESE 22:22:28 10° NNE
Lacrosse 5 rocket 2.9 22:15:28 10° N 22:18:05 17° NNE 22:20:48 10° ENE
Meteor PRIRODA 4.2 22:17:05 10° S 22:20:39 61° W 22:24:15 10° NNW
Cosmos 1570 Rocket 4.0 22:16:42 10° S 22:21:53 69° ESE 22:27:05 10° NNE
CZ-2C R/B 2.3 22:21:08 10° WSW 22:25:13 41° SSE 22:29:12 10° E
Cosmos 1634 Rocket 4.1 22:19:14 10° S 22:25:33 87° W 22:31:55 10° N
Sich 1 3.0 22:21:17 10° N 22:25:36 85° E 22:29:56 10° S
MOS 1-B Rocket 4.4 22:23:19 10° NNE 22:29:24 54° ESE 22:36:28 10° S
PSLV R/B 4.0 22:26:46 10° SE 22:30:15 42° ENE 22:33:48 10° N
Cosmos 2026 Rocket 4.0 22:24:10 10° N 22:30:17 90° E 22:36:20 10° S
ISS -3.6 22:29:05 10° NW 22:32:25 54° NE 22:35:45 10° ESE
Cosmos 44 Rocket 4.1 22:28:57 10° N 22:33:13 29° NE 22:37:21 10° ESE
Radarsat 4.5 22:28:25 10° SSE 22:33:35 75° ENE 22:38:47 10° N
Cosmos 1812 2.6 22:30:28 10° S 22:34:18 87° E 22:38:10 10° N
Cosmos 1805 Rocket 4.4 22:31:54 10° NNW 22:36:08 54° W 22:40:20 10° S
Meteor 2-21 Rocket 4.4 22:35:16 10° N 22:41:21 76° E 22:47:24 10° SSE
GPS 2-04 Rocket1 4.4 22:41:41 10° W 22:45:22 32° SSW 22:49:03 10° SE
Cosmos 1544 4.2 22:44:01 10° NNE 22:46:55 22° ENE 22:49:49 10° SE
Cosmos 1818 3.9 22:41:53 10° NNW 22:47:04 41° NE 22:52:11 10° ESE
Cosmos 1697 Rocket 4.4 22:43:46 10° NW 22:48:53 37° WSW 22:53:58 10° S
Cosmos 1515 Rocket 4.0 22:46:09 10° SSE 22:50:16 39° E 22:54:13 11° NNE
Cosmos 2322 Rocket 3.3 22:46:29 10° N 22:50:55 23° NE 22:52:58 19° E
Meteor 1-10 Rocket 4.4 22:45:54 10° S 22:51:31 54° E 22:57:01 10° NNE
Cosmos 1980 Rocket 2.5 22:49:19 10° NNW 22:54:56 69° WSW 23:00:29 10° SSE
Cosmos 921 Rocket 2.8 22:52:36 10° S 22:56:47 81° ESE 23:00:53 11° NNE
APEX 2.9 22:53:05 10° SSW 22:57:10 75° ESE 22:59:13 22° NNE
Meteor 1-11 Rocket 4.3 22:52:00 10° N 22:57:11 35° ENE 23:02:27 10° SE
Cosmos 1356 Rocket 4.3 22:54:34 10° NNE 22:58:14 28° ENE 23:01:55 10° SE
Cosmos 2208 Rocket 4.4 22:54:49 10° SSW 23:00:10 68° WNW 23:05:37 10° NNE
Cosmos 2180 Rocket 4.5 22:54:00 10° S 23:00:20 84° E 23:06:39 10° N
USA 267 4.2 22:56:58 11° NNE 23:02:49 40° NNW 23:08:48 10° W
Tiangong 2.4 23:00:51 10° SSW 23:03:35 27° SSE 23:04:10 25° SE
DEBRIS 2.6 23:02:36 10° SW 23:04:48 51° SE 23:05:58 33° ENE
Cosmos 1655 Rocket 4.1 22:59:28 10° N 23:05:43 54° E 23:11:53 10° SSE
Cosmos 1867 3.7 23:02:26 10° SSW 23:07:44 55° ESE 23:10:44 25° NE
Cosmos 2150 Rocket 4.2 23:03:00 10° N 23:08:02 47° ENE 23:13:05 10° SE
H-2A R/B 2.0 23:04:11 10° SSE 23:09:21 83° WSW 23:14:25 10° NNW
Cosmos 2082 Rocket 4.0 23:04:29 10° WSW 23:09:22 29° WNW 23:14:15 10° N
SL-16 R/B 2.5 23:05:50 10° N 23:11:13 42° ENE 23:16:34 10° SE
ARGOS 3.1 23:06:12 10° SSE 23:11:30 60° ENE 23:16:49 10° N
COSMO-SKYMED 1 2.6 23:10:13 10° N 23:14:35 84° WNW 23:18:55 10° SSW
USA 32 4.1 23:10:18 10° SSE 23:15:19 50° E 23:19:45 13° NNE
Cosmos 1125 Rocket 3.6 23:11:26 10° N 23:16:34 52° ENE 23:21:42 10° SE
Cosmos 1633 Rocket 3.7 23:12:32 10° NNW 23:16:51 58° W 23:21:09 10° S
SL-08 RB Rocket 3.8 23:18:38 10° SSE 23:23:08 52° ENE 23:27:36 10° N
X-37B 1.2 23:20:32 10° W 23:23:02 43° NW 23:23:02 43° NW
Landsat 5 3.2 23:23:02 27° NNE 23:25:09 87° ESE 23:29:03 10° SSW
Centaur D-1A AC-32 4.5 23:22:43 10° SW 23:25:30 16° SSW 23:27:51 10° SSE
USA 234 3.1 23:28:32 17° SE 23:33:46 79° NE 23:40:19 10° NW
Meteor 2-15 Rocket 4.5 23:29:29 10° S 23:35:36 80° W 23:41:45 10° N
CZ-2C R/B 3.2 23:32:02 10° N 23:37:04 53° WNW 23:42:05 10° SSW
NOSS 3-3 (A) 3.6 23:36:13 10° SSW 23:41:43 77° ESE 23:43:32 46° NE
NOSS 3-3 (C) 3.6 23:36:19 10° SSW 23:41:50 76° ESE 23:43:36 47° NE
Cosmos 1933 Rocket 3.4 23:38:58 10° N 23:43:19 87° W 23:47:39 10° S
Okean O Rocket 2.1 23:41:18 10° S 23:45:40 60° W 23:50:06 10° NNW
Genesis I 4.0 23:41:56 10° SSW 23:44:39 43° S 23:44:39 43° S
CZ-4B R/B 4.1 23:45:43 10° S 23:50:55 48° W 23:56:05 10° NNW
CZ-4C R/B 4.4 23:54:58 35° WSW 23:54:58 35° WSW 23:57:22 10° SSW
ATLAS 5 CENTAUR R/B 4.0 23:53:34 10° NNW 23:54:52 17° NNW 23:54:52 17° NNW
